Date String (YYYY-MM-DD hh:mm:ss) UTC,Instrument flags,absolute air pressure of the measurement (hPa),sample flow rate (lpm),inlet stack bypass flow (lpm),air temperature of the measurement (°C),ambient temperature measured by the external sensor (°C),aerosol sample conditioner tube jacket temperature (°C),OPC LED temperature (°C),internal box temperature (°C),relative humidity of the measurement (%),span deviation,mass concentration of particles derived from Lorenz-Mie calculation of OPC scattering (μg/m³),mass concentration of particles derived from Lorenz-Mie calculation of OPC scattering (μg/m³),mass concentration of particles derived from Lorenz-Mie calculation of OPC scattering (μg/m³)
DateTimeUTC,F1_M11,P_M11,Q1_M11,Q2_M11,T1_M11,T2_M11,T3_M11,T4_M11,T5_M11,U1_M11,ZSPAN_M11,X0_M11,X2_M11,X1_M11
2023-12-31 21:00:00,SystemResetWarning,0830.0,5.00,000.00,024.3,023.7,000.0,032.5,025.8,12.2,0000.0,0009.11,0005.00,0004.58
2023-12-31 21:01:00,SystemResetWarning,0830.0,5.01,000.00,024.3,023.7,000.0,032.5,025.9,12.2,0000.0,0009.54,0005.00,0004.57
2023-12-31 21:02:00,SystemResetWarning,0830.0,5.00,000.00,024.3,023.7,000.0,032.5,025.9,12.2,0000.0,0009.65,0004.99,0004.58
2023-12-31 21:03:00,SystemResetWarning,0830.0,5.00,000.00,024.4,023.7,000.0,032.5,025.9,12.2,0000.0,0009.64,0004.97,0004.58
2023-12-31 21:04:00,SystemResetWarning,0830.0,5.00,000.00,024.4,023.8,000.0,032.5,025.9,12.2,0000.0,0009.82,0005.00,0004.60
2023-12-31 21:05:00,SystemResetWarning,0830.0,5.00,000.00,024.4,023.8,000.0,032.5,025.9,12.1,0000.0,0010.30,0005.00,0004.61
2023-12-31 21:06:00,SystemResetWarning,0830.1,5.00,000.00,024.4,023.8,000.0,032.6,025.9,12.1,0000.0,0010.46,0005.02,0004.61
2023-12-31 21:07:00,SystemResetWarning,0830.0,5.01,000.00,024.4,023.8,000.0,032.6,026.0,12.1,0000.0,0010.58,0005.02,0004.61
2023-12-31 21:08:00,SystemResetWarning,0830.0,5.00,000.00,024.5,023.8,000.0,032.6,026.0,12.1,0000.0,0010.90,0005.03,0004.61
2023-12-31 21:09:00,SystemResetWarning,0830.0,5.00,000.00,024.5,023.9,000.0,032.6,026.0,12.1,0000.0,0010.63,0005.05,0004.62
2023-12-31 21:10:00,SystemResetWarning,0830.0,5.00,000.00,024.5,023.9,000.0,032.6,026.0,12.1,0000.0,0009.92,0005.05,0004.62
2023-12-31 21:11:00,SystemResetWarning,0830.1,5.00,000.00,024.5,023.9,000.0,032.6,026.0,12.0,0000.0,0010.22,0005.08,0004.63
2023-12-31 21:12:00,SystemResetWarning,0830.0,4.99,000.00,024.5,023.9,000.0,032.7,026.0,12.1,0000.0,0010.05,0005.11,0004.64
2023-12-31 21:13:00,SystemResetWarning,0830.0,5.00,000.00,024.5,023.9,000.0,032.7,026.0,12.0,0000.0,0010.47,0005.11,0004.64
2023-12-31 21:14:00,SystemResetWarning,0830.1,5.00,000.00,024.6,023.9,000.0,032.7,026.0,12.0,0000.0,0010.56,0005.12,0004.64
2023-12-31 21:15:00,SystemResetWarning,0830.1,5.01,000.00,024.6,023.9,000.0,032.7,026.0,11.9,0000.0,0010.42,0005.12,0004.63
2023-12-31 21:16:00,SystemResetWarning,0830.0,5.00,000.00,024.6,023.9,000.0,032.7,026.0,12.0,0000.0,0010.02,0005.11,0004.61
2023-12-31 21:17:00,SystemResetWarning,0830.1,5.00,000.00,024.6,024.0,000.0,032.7,026.1,12.0,0000.0,0009.89,0005.10,0004.61
2023-12-31 21:18:00,SystemResetWarning,0830.1,5.00,000.00,024.6,024.0,000.0,032.8,026.1,12.0,0000.0,0009.78,0005.11,0004.62
2023-12-31 21:19:00,SystemResetWarning,0830.1,5.00,000.00,024.6,024.0,000.0,032.8,026.1,12.0,0000.0,0009.64,0005.12,0004.62
2023-12-31 21:20:00,SystemResetWarning,0830.1,5.00,000.00,024.6,024.0,000.0,032.8,026.1,12.0,0000.0,0009.45,0005.11,0004.62
2023-12-31 21:21:00,SystemResetWarning,0830.1,4.99,000.00,024.7,024.0,000.0,032.8,026.1,11.9,0000.0,0009.50,0005.12,0004.62
2023-12-31 21:22:00,SystemResetWarning,0830.2,4.99,000.00,024.7,024.0,000.0,032.8,026.1,11.9,0000.0,0009.44,0005.10,0004.63
2023-12-31 21:23:00,SystemResetWarning,0830.1,5.00,000.00,024.7,024.0,000.0,032.8,026.2,11.9,0000.0,0009.45,0005.05,0004.61
2023-12-31 21:24:00,SystemResetWarning,0830.1,5.02,000.00,024.7,024.1,000.0,032.8,026.2,11.9,0000.0,0009.03,0005.01,0004.60
2023-12-31 21:25:00,SystemResetWarning,0830.1,5.00,000.00,024.7,024.1,000.0,032.9,026.2,11.8,0000.0,0009.20,0005.02,0004.60
2023-12-31 21:26:00,SystemResetWarning,0830.1,4.98,000.00,024.7,024.1,000.0,032.9,026.2,11.8,0000.0,0009.29,0005.03,0004.62
2023-12-31 21:27:00,SystemResetWarning,0830.1,5.00,000.00,024.7,024.1,000.0,032.9,026.2,11.8,0000.0,0009.28,0005.05,0004.63
2023-12-31 21:28:00,SystemResetWarning,0830.1,5.01,000.00,024.8,024.1,000.0,032.9,026.3,11.9,0000.0,0010.11,0005.04,0004.63
2023-12-31 21:29:00,SystemResetWarning,0830.1,5.00,000.00,024.8,024.1,000.0,032.9,026.3,11.8,0000.0,0010.39,0005.04,0004.62
2023-12-31 21:30:00,SystemResetWarning,0830.1,4.99,000.00,024.8,024.2,000.0,032.9,026.3,11.9,0000.0,0010.95,0005.05,0004.61
2023-12-31 21:31:00,SystemResetWarning,0830.1,4.99,000.00,024.8,024.2,000.0,032.9,026.3,11.8,0000.0,0011.10,0005.05,0004.60
2023-12-31 21:32:00,SystemResetWarning,0830.1,5.00,000.00,024.8,024.2,000.0,033.0,026.3,11.9,0000.0,0011.25,0005.04,0004.60
2023-12-31 21:33:00,SystemResetWarning,0830.2,5.00,000.00,024.8,024.2,000.0,033.0,026.3,11.8,0000.0,0011.38,0005.04,0004.59
2023-12-31 21:34:00,SystemResetWarning,0830.1,5.00,000.00,024.8,024.2,000.0,033.0,026.3,11.8,0000.0,0011.54,0005.06,0004.60
2023-12-31 21:35:00,SystemResetWarning,0830.1,5.01,000.00,024.9,024.2,000.0,033.0,026.3,11.8,0000.0,0011.57,0005.10,0004.62
2023-12-31 21:36:00,SystemResetWarning,0830.2,5.00,000.00,024.9,024.2,000.0,033.0,026.3,11.8,0000.0,0011.11,0005.09,0004.61
2023-12-31 21:37:00,SystemResetWarning,0830.2,5.01,000.00,024.9,024.2,000.0,033.0,026.3,11.8,0000.0,0011.00,0005.06,0004.59
2023-12-31 21:38:00,SystemResetWarning,0830.2,5.00,000.00,024.9,024.2,000.0,033.0,026.3,11.7,0000.0,0011.21,0005.06,0004.58
2023-12-31 21:39:00,SystemResetWarning,0830.3,5.00,000.00,024.9,024.3,000.0,033.1,026.3,11.7,0000.0,0010.90,0005.08,0004.58
2023-12-31 21:40:00,SystemResetWarning,0830.3,4.99,000.00,024.9,024.3,000.0,033.1,026.3,11.7,0000.0,0010.46,0005.08,0004.59
2023-12-31 21:41:00,SystemResetWarning,0830.2,5.00,000.00,024.9,024.3,000.0,033.1,026.3,11.8,0000.0,0010.83,0005.07,0004.59
2023-12-31 21:42:00,SystemResetWarning,0830.2,5.00,000.00,024.9,024.3,000.0,033.1,026.3,11.8,0000.0,0011.48,0005.06,0004.59
2023-12-31 21:43:00,SystemResetWarning,0830.2,4.99,000.00,024.9,024.3,000.0,033.1,026.3,11.7,0000.0,0011.61,0005.06,0004.59
2023-12-31 21:44:00,SystemResetWarning,0830.2,5.01,000.00,024.9,024.3,000.0,033.1,026.3,11.8,0000.0,0011.50,0005.09,0004.60
2023-12-31 21:45:00,SystemResetWarning,0830.2,5.01,000.00,024.9,024.3,000.0,033.1,026.3,11.7,0000.0,0011.30,0005.11,0004.61
2023-12-31 21:46:00,SystemResetWarning,0830.2,4.99,000.00,025.0,024.3,000.0,033.1,026.3,11.6,0000.0,0010.99,0005.13,0004.62
2023-12-31 21:47:00,SystemResetWarning,0830.2,4.99,000.00,025.0,024.3,000.0,033.1,026.3,11.6,0000.0,0010.92,0005.11,0004.60
2023-12-31 21:48:00,SystemResetWarning,0830.3,4.99,000.00,025.0,024.3,000.0,033.1,026.3,11.7,0000.0,0010.91,0005.12,0004.61
2023-12-31 21:49:00,SystemResetWarning,0830.2,5.01,000.00,025.0,024.3,000.0,033.1,026.4,11.7,0000.0,0010.79,0005.12,0004.61
2023-12-31 21:50:00,SystemResetWarning,0830.2,5.01,000.00,025.0,024.3,000.0,033.2,026.4,11.7,0000.0,0010.43,0005.07,0004.61
2023-12-31 21:51:00,SystemResetWarning,0830.3,5.00,000.00,025.0,024.3,000.0,033.2,026.4,11.6,0000.0,0010.50,0005.06,0004.61
2023-12-31 21:52:00,SystemResetWarning,0830.3,4.98,000.00,025.0,024.3,000.0,033.2,026.3,11.6,0000.0,0010.18,0005.04,0004.60
2023-12-31 21:53:00,SystemResetWarning,0830.3,5.00,000.00,025.0,024.3,000.0,033.2,026.3,11.6,0000.0,0009.19,0004.99,0004.59
2023-12-31 21:54:00,SystemResetWarning,0830.3,5.02,000.00,025.0,024.3,000.0,033.2,026.4,11.6,0000.0,0008.19,0004.96,0004.58
2023-12-31 21:55:00,SystemResetWarning,0830.3,5.00,000.00,025.0,024.3,000.0,033.2,026.4,11.7,0000.0,0008.13,0004.93,0004.57
2023-12-31 21:56:00,SystemResetWarning,0830.3,5.00,000.00,025.0,024.3,000.0,033.2,026.4,11.6,0000.0,0008.01,0004.90,0004.56
2023-12-31 21:57:00,SystemResetWarning,0830.3,4.99,000.00,025.0,024.4,000.0,033.2,026.5,11.7,0000.0,0007.89,0004.85,0004.54
2023-12-31 21:58:00,SystemResetWarning,0830.3,5.00,000.00,025.0,024.4,000.0,033.2,026.5,11.6,0000.0,0008.02,0004.90,0004.55
2023-12-31 21:59:00,SystemResetWarning,0830.3,5.01,000.00,025.1,024.4,000.0,033.2,026.5,11.6,0000.0,0008.08,0004.90,0004.56
